Погода в Заре

Россия / Вологодская область     59°17′51″N   39°29′34″E
темп.,
°C
ветер,
м/с
пор.,
м/с
влажн.,
%
обл.,
%
осадки,
мм/ч
давл.,
гПа
погр.,
м
17 апреля, сб
сб1700:00+3всв311825 0.0 1030267
03:00+2всв38895 0.0 1031178
06:00+1всв38887 0.0 1031189
09:00+7всв48634 0.0 1031470
12:00+11всв56443 0.0 10311156
15:00+12всв45411 0.0 10301368
18:00+11св36490 0.0 1028375
21:00+6св37680 0.0 1028117
18 апреля, вс
вс1800:00+4св36805 0.0 1029112
03:00+2св358494 0.0 102987
06:00+3св3782100 0.0 1029186
09:00+7всв4866100 0.0 1030522
12:00+9всв5753100 0.0 10301187
15:00+10всв6750100 0.0 10291539
18:00+6всв5864100 0.0 10311095
21:00+4всв4966100 0.0 1032486
19 апреля, пн
пн1900:00+2всв41166100 0.0 1032395
03:000всв410772 0.0 1033294
06:00−1всв410750 0.0 1034372
09:00+4в58510 0.0 1034916
12:00+7в67395 0.0 10331547
15:00+8в57355 0.0 10331749
18:00+7в46435 0.0 10321336
21:00+2в3965100 0.0 1033207
20 апреля, вт
вт2000:00+2вюв31067100 0.0 1033288
03:00−1в397721 0.0 1033204
06:00−1в310714 0.0 1032318
09:00+5вюв694197 0.0 10311003
12:00+6вюв6836100 0.0 10301291
15:00+9вюв694072 0.0 10281664
18:00+8вюв5951100 0.0 10251281
21:00+5в41258100 0.0 1024507
21 апреля, ср
ср2100:00+4вюв51356100 0.0 1021675
03:00+3в61458100 0.0 1018719
06:00+1в71688100 1.0 1015784
09:00+1вюв71697100 3.5 1012720
12:00+2вюв71595100 0.8 1010791
15:00+3вюв71597100 1.9 1009952
18:00+3юв71597100 1.3 1007951
21:00+4юв61597100 3.7 10061080